CDT,Max TemperatureF,Mean TemperatureF,Min TemperatureF,Max Dew PointF,MeanDew PointF,Min DewpointF,Max Humidity, Mean Humidity, Min Humidity, Max Sea Level PressureIn, Mean Sea Level PressureIn, Min Sea Level PressureIn, Max VisibilityMiles, Mean VisibilityMiles, Min VisibilityMiles, Max Wind SpeedMPH, Mean Wind SpeedMPH, Max Gust SpeedMPH,PrecipitationIn, CloudCover, Events, WindDirDegrees
2013-8-1,86,78,71,73,70,68,97,79,57,30.07,30.02,29.98,10,10,7,8,5,,0.08,3,,21
2013-8-2,87,78,69,73,69,66,100,80,49,30.03,30.00,29.95,10,8,0,15,2,18,0.10,1,Fog-Thunderstorm,159
2013-8-3,86,80,73,74,72,70,94,85,63,30.09,30.01,29.92,10,10,4,12,4,,0.04,4,Rain-Thunderstorm,235
2013-8-4,88,79,70,72,70,67,97,78,57,30.13,30.08,30.05,10,10,5,9,4,,0.06,2,Rain,28
2013-8-5,80,75,71,75,71,64,94,87,73,30.07,29.99,29.91,10,9,2,7,3,,1.51,5,Rain-Thunderstorm,142
2013-8-6,84,78,73,75,73,71,100,90,72,30.00,29.92,29.87,10,9,1,12,6,18,0.30,4,Rain-Thunderstorm,159
2013-8-7,89,82,75,77,73,70,94,82,63,29.98,29.90,29.86,10,10,10,14,5,24,0.06,2,Rain,157
2013-8-8,91,83,75,81,75,69,94,84,63,29.97,29.91,29.86,10,10,3,9,3,,0.11,3,Rain-Thunderstorm,170
2013-8-9,89,80,73,77,74,71,94,85,61,30.02,29.97,29.91,10,10,10,22,5,32,0.10,3,Rain-Thunderstorm,359
2013-8-10,82,76,71,76,72,70,100,90,74,30.14,30.08,30.01,10,8,0,15,4,28,1.38,7,Fog-Rain-Thunderstorm,13
2013-8-11,84,78,73,75,74,72,100,89,69,30.14,30.09,30.04,10,10,7,7,1,,0.04,5,Rain-Thunderstorm,133
2013-8-12,90,81,73,79,75,71,94,86,67,30.05,30.00,29.92,10,10,3,12,5,18,0.02,4,Rain-Thunderstorm,208
2013-8-13,84,78,71,74,72,67,97,84,67,30.02,29.98,29.94,10,10,9,9,4,,0.02,4,,350
2013-8-14,75,68,59,66,58,55,90,72,51,30.13,30.09,30.02,10,10,10,15,8,23,0.00,0,,33
2013-8-15,79,66,55,61,57,53,96,74,48,30.11,30.07,30.03,10,10,10,10,5,16,0.00,0,,26
2013-8-16,78,69,60,68,64,58,93,81,68,30.08,30.05,30.03,10,10,9,8,5,,0.01,4,Rain,35
2013-8-17,81,73,66,70,66,64,93,80,64,30.11,30.08,30.04,10,10,7,12,5,18,0.00,4,,58
2013-8-18,82,73,64,67,66,63,100,85,56,30.14,30.10,30.06,10,7,0,7,2,,0.00,4,Fog,63
2013-8-19,87,73,62,70,66,62,100,81,57,30.12,30.08,30.02,10,8,1,6,2,,0.01,2,,43
2013-8-20,89,76,64,72,69,63,97,78,53,30.11,30.06,30.03,10,10,9,6,2,,0.00,1,Rain,74
2013-8-21,91,78,66,74,69,66,100,82,47,30.14,30.09,30.06,10,7,1,6,1,,0.00,3,,42
2013-8-22,91,80,70,76,70,68,93,74,47,30.13,30.07,30.01,10,10,10,6,2,,0.14,1,,197
2013-8-23,91,80,68,72,68,64,94,78,48,30.08,30.05,30.00,10,8,0,14,2,18,0.00,2,Fog,30
2013-8-24,90,79,68,72,69,66,93,75,55,30.16,30.12,30.07,10,9,5,10,4,16,0.00,0,,62
2013-8-25,86,80,73,73,71,68,87,75,61,30.26,30.22,30.16,10,10,10,12,6,,0.00,2,,155
2013-8-26,88,79,71,70,69,67,88,72,51,30.26,30.20,30.13,10,10,10,7,5,,0.00,1,,179
2013-8-27,89,79,69,70,67,64,87,69,48,30.16,30.10,30.04,10,10,10,10,5,,0.00,0,,202
2013-8-28,91,80,70,70,68,65,90,69,44,30.09,30.05,30.01,10,10,10,8,4,,0.00,1,,227
2013-8-29,93,82,71,76,70,67,87,70,49,30.06,30.02,29.97,10,10,10,6,4,,0.00,0,,263
2013-8-30,93,82,72,73,71,69,91,70,48,30.01,29.95,29.88,10,10,10,7,3,,0.00,1,,232
2013-8-31,95,84,75,74,72,70,87,69,47,29.91,29.86,29.80,10,10,10,8,5,,0.00,0,,210